Location: Castillon
(43.4833°N, 0.1333°W)
Time: 22:52:29
(UTC+00:00)

Daily predictions for brighter satellites

Satellite Brightness Start Highest point End
(mag) Time Altitude Azimuth Time Altitude Azimuth Time Altitude Azimuth
CZ-4B R/B 3.9 20:07:52 10° S 20:13:02 55° W 20:18:16 10° NNW
Okean O Rocket 1.9 20:10:43 10° S 20:15:07 73° WSW 20:19:31 10° NNW
SeaSat 1 3.3 20:13:06 10° ESE 20:17:38 39° NE 20:22:11 10° NNW
Cosmos 1766 3.2 20:14:44 10° N 20:18:28 63° E 20:22:11 10° SSE
EXPRESS MD2 2.6 20:14:55 10° SW 20:18:32 53° SSE 20:20:56 10° ENE
CARTOSAT-1 4.3 20:15:06 10° S 20:19:15 53° W 20:23:26 10° NNW
SL-24 R/B 4.4 20:15:36 10° SSE 20:20:40 85° WSW 20:25:04 10° NNW
CZ-4 R/B 3.8 20:19:09 10° SW 20:22:13 21° W 20:25:20 10° NW
Cosmos 2026 Rocket 4.0 20:16:28 10° S 20:22:40 90° W 20:28:49 10° N
Cosmos 1470 Rocket 3.6 20:18:37 10° N 20:22:58 64° E 20:27:15 10° SSE
Cosmos 1066 Rocket 4.3 20:17:14 10° S 20:23:04 79° E 20:28:52 10° NNE
OPS 6432 4.5 20:20:55 10° NW 20:23:59 65° SW 20:27:16 10° SSE
USA 234 3.3 20:18:05 10° NE 20:24:37 67° SE 20:31:05 10° SW
IRIDIUM 104 4.4 20:22:33 10° N 20:27:46 68° E 20:32:57 10° S
Cosmos 1666 Rocket 4.3 20:26:08 10° NNW 20:30:22 52° W 20:34:34 10° S
Cosmos 2360 Rocket 4.3 20:27:25 10° N 20:30:42 15° NE 20:33:59 10° E
Cosmos 2285 Rocket 4.2 20:26:36 10° SSW 20:32:56 80° WNW 20:39:22 10° NNE
Cosmos 2333 Rocket 4.3 20:32:02 10° N 20:35:27 16° NE 20:38:52 10° E
Atlas Centaur 2 3.8 20:29:21 10° SW 20:36:17 31° S 20:43:15 10° ESE
IRIDIUM 114 4.3 20:31:41 10° N 20:36:56 82° E 20:42:09 10° S
ERS-1 Rocket 3.5 20:33:16 10° SE 20:38:03 46° ENE 20:42:51 10° N
SL-16 R/B 3.4 20:33:59 10° N 20:38:58 30° NE 20:43:56 10° ESE
Cosmos 1441 Rocket 4.1 20:35:56 10° N 20:39:09 30° ENE 20:41:54 13° SE
Resurs 01 Rocket 3.3 20:35:58 10° SSW 20:39:52 31° W 20:43:48 10° NNW
Cosmos 1763 Rocket 3.5 20:35:26 10° NNW 20:40:42 75° ENE 20:45:43 11° SSE
Cosmos 2369 3.8 20:35:04 10° NNW 20:40:51 89° ENE 20:46:32 10° SSE
Lacrosse 5 rocket 3.8 20:39:04 10° W 20:41:20 14° WSW 20:43:33 10° SSW
Cosmos 2082 Rocket 2.4 20:35:59 10° SSW 20:41:42 79° WNW 20:47:26 10° NNE
Spot 2 Rocket 4.2 20:38:13 11° SE 20:42:41 38° ENE 20:47:22 10° N
IRIDIUM 103 4.4 20:40:50 10° N 20:46:05 82° W 20:51:18 10° S
Cosmos 1933 Rocket 3.7 20:42:53 10° N 20:47:16 60° E 20:51:18 12° SSE
SPOT 5 2.6 20:42:58 10° SSE 20:47:16 87° ENE 20:51:39 10° NNW
Cosmos 1470 2.6 20:44:11 10° N 20:47:52 65° E 20:51:09 12° SSE
Cosmos 1908 3.3 20:51:31 10° N 20:55:03 52° E 20:57:41 16° SSE
Cosmos 1674 3.3 20:55:31 10° SSW 20:58:53 50° W 21:02:16 10° N
IRS-1C Rocket 4.1 20:54:03 10° SSE 20:59:18 87° WSW 21:04:35 10° NNW
ATLAS 2AS CENTAUR R/B 4.0 20:55:15 10° NNW 21:01:12 30° NE 21:06:57 10° E
KORONAS-FOTON 4.3 21:01:50 10° SSW 21:05:29 58° W 21:09:10 10° N
Ariane Rocket 3.2 21:03:06 16° SSE 21:07:07 60° ENE 21:12:08 10° N
Cosmos 468 Rocket 4.0 21:02:36 10° NNW 21:07:52 86° ENE 21:11:55 17° SSE
Cosmos 1842 4.0 21:05:28 10° SSW 21:08:59 47° W 21:12:33 10° N
COSMOS 2406 4.0 21:09:22 10° SW 21:15:00 54° WNW 21:20:39 10° NNE
SPOT 3 Rocket 3.6 21:12:14 18° SSE 21:16:03 66° ENE 21:21:11 10° N
Meteor 1-13 Rocket 4.3 21:11:48 10° S 21:17:39 86° E 21:23:23 10° N
SL-27 R/B 4.2 21:19:33 12° E 21:19:33 12° E 21:20:13 10° ENE
Cosmos 1553 Rocket 4.4 21:16:01 10° NNW 21:22:05 61° W 21:28:13 10° S
Cosmos 1980 Rocket 3.6 21:18:31 10° NW 21:23:28 32° WSW 21:28:22 10° SSW
Cosmos 2322 Rocket 3.0 21:18:21 10° NNW 21:23:44 42° ENE 21:27:28 19° ESE
S3M 4.0 21:17:56 10° N 21:24:20 76° E 21:29:06 19° SSE
Cosmos 1655 Rocket 4.2 21:22:56 17° SSE 21:27:54 58° E 21:34:10 10° NNE
SJ 16-02 2.8 21:28:53 19° ESE 21:29:26 19° E 21:32:32 10° NE
Cosmos 2278 3.7 21:27:00 10° NNW 21:32:45 86° WSW 21:36:25 23° SSE
Landsat 5 3.6 21:29:12 10° NNE 21:33:06 50° E 21:35:02 27° SSE
Landsat 4 3.6 21:32:54 27° S 21:34:39 71° WSW 21:38:05 10° NNW
Cosmos 1741 Rocket 4.2 21:31:50 20° S 21:35:16 50° ESE 21:40:23 10° NNE
USA 245 4.1 21:34:18 18° SSW 21:36:19 40° W 21:40:01 10° NNW
Tiangong -1.3 21:34:23 10° W 21:37:17 33° SSW 21:37:28 32° S
USA 281 4.2 21:32:45 15° ESE 21:37:33 36° NE 21:43:25 10° N
Cosmos 2266 Rocket 4.1 21:31:17 10° S 21:37:35 84° W 21:44:01 10° N
Cosmos 540 Rocket 4.2 21:32:53 10° NNW 21:37:48 46° WSW 21:41:30 17° S
Cosmos 1400 Rocket 2.7 21:35:14 19° S 21:37:56 86° W 21:41:50 10° N
MetOp-A 4.3 21:37:25 25° SE 21:40:20 59° ENE 21:45:30 10° N
Okean 3 4.3 21:39:26 28° ESE 21:40:34 32° E 21:44:18 10° NNE
Terra 2.4 21:37:47 17° S 21:41:15 52° W 21:45:52 10° NNW
Cosmos 1733 Rocket 3.5 21:38:09 10° N 21:42:26 49° ENE 21:44:16 30° SE
Cosmos 968 Rocket 3.9 21:41:01 26° SSE 21:43:21 42° ESE 21:48:12 10° NNE
Cosmos 2237 4.3 21:38:51 10° NNW 21:44:35 79° WSW 21:47:58 26° SSE
SL-4 R/B 4.1 21:42:53 10° WNW 21:46:14 27° N 21:49:46 10° NE
Cosmos 2228 Rocket 3.1 21:44:42 26° S 21:47:12 72° E 21:51:46 10° NNE
Cosmos 1315 Rocket 4.1 21:51:04 23° E 21:51:25 24° E 21:54:38 10° NE
Cosmos 2219 Rocket 3.5 21:47:21 10° N 21:52:19 30° NE 21:55:47 17° ESE
ATLAS CENTAUR R/B 1.0 21:52:13 46° SSE 21:52:41 50° ESE 21:56:09 10° NE
SeaSat 1 3.8 21:51:57 16° SSW 21:55:06 30° WSW 21:59:26 10° NW
Meteor 2-10 Rocket 3.7 21:51:55 10° NNW 21:57:33 80° W 22:00:34 27° S
Cosmos 1953 3.6 21:56:59 10° NNE 22:00:09 24° ENE 22:00:51 23° E
H-2A R/B 4.4 21:59:30 16° E 22:01:04 19° ENE 22:04:04 10° NNE
Cosmos 1455 3.6 22:00:38 10° NNE 22:03:22 21° ENE 22:03:41 21° E
Okean 1-7 3.6 22:04:58 35° ESE 22:05:48 39° E 22:09:51 10° NNE
USA 234 4.4 22:01:16 10° NE 22:07:26 46° NNW 22:13:36 10° W
BREEZE-M DEB (TANK) 2.4 22:06:06 10° WNW 22:08:14 62° NNE 22:09:09 38° E
CZ-2C R/B 4.0 22:06:31 10° NNE 22:10:44 44° E 22:11:36 39° SE
Cosmos 2315 Rocket 4.3 22:09:03 10° NNW 22:15:22 66° W 22:19:12 25° SSW
Cosmos 2360 Rocket 2.2 22:09:56 10° NNW 22:15:38 80° ENE 22:18:06 35° SSE
Cosmos 841 Rocket 4.1 22:13:18 10° NNW 22:18:21 48° WSW 22:20:45 28° SSW
SL-14 R/B 4.2 22:17:25 23° SW 22:19:19 42° WNW 22:22:57 10° N
RESURS DK-1 2.5 22:16:15 10° NNW 22:20:16 59° WSW 22:21:10 46° SSW
Cosmos 2333 Rocket 2.2 22:14:54 10° NNW 22:20:42 80° ENE 22:23:08 36° SSE
SL-16 R/B 2.9 22:17:51 10° NW 22:23:13 44° WSW 22:25:47 27° SSW
Atlas Centaur 2 3.7 22:17:48 10° WSW 22:24:44 30° S 22:25:49 29° S
Cosmos 1300 3.6 22:22:45 10° NNW 22:26:03 36° W 22:26:54 31° SW
Aureole 3 3.6 22:30:50 42° SW 22:31:55 61° WNW 22:36:18 10° N
Cosmos 1703 Rocket 3.8 22:32:44 46° SE 22:33:24 51° E 22:37:44 10° NNE
Cosmos 1833 4.1 22:30:08 25° SSW 22:33:34 86° WNW 22:39:14 10° NNE
Cosmos 1862 Rocket 4.3 22:32:47 27° SW 22:34:51 48° WNW 22:39:08 10° N
Cosmos 1346 Rocket 3.7 22:32:06 10° NNW 22:35:43 39° W 22:36:35 33° SW
Meteor 1-4 Rocket 2.8 22:41:49 48° WNW 22:41:49 48° WNW 22:44:32 10° N
Cosmos 1932 4.4 22:38:31 25° SSW 22:42:22 79° ESE 22:48:40 10° NE
Cosmos 839 Rocket 4.0 22:38:10 10° NNW 22:45:04 82° ENE 22:47:42 37° SE
Meteor 1-16 Rocket 4.4 22:39:21 10° NNW 22:45:16 70° W 22:47:38 37° S
BlueWalker 3 4.4 22:50:03 11° ENE 22:50:03 11° ENE 22:50:17 10° ENE
Cosmos 2322 4.4 22:41:36 10° NNW 22:47:03 45° ENE 22:49:30 29° ESE
Cosmos 2237 Rocket 4.4 22:43:57 10° N 22:47:44 18° NE 22:51:30 10° E
SL-27 R/B 4.2 22:50:57 19° WNW 22:51:26 20° WNW 22:53:35 10° NNW
ATLAS 2AS CENTAUR R/B 2.6 22:45:57 10° NW 22:52:44 74° WSW 22:55:16 40° SSE
Cosmos 2333 4.2 22:47:13 10° NNW 22:52:59 74° WSW 22:54:50 45° S
ARIANE 5 R/B 2.6 22:54:59 57° SSW 22:55:40 69° WSW 22:59:59 10° NNW
Okean 2 3.9 23:00:22 42° WSW 23:01:08 49° WNW 23:05:02 10° N
PSLV R/B 4.0 22:58:18 10° N 23:02:16 67° WNW 23:02:50 58° WSW
Cosmos 1745 Rocket 4.0 23:05:11 43° S 23:07:24 77° E 23:13:47 10° N
SJ 16-02 2.5 23:05:35 25° WSW 23:07:28 38° WNW 23:11:32 10° N
Cosmos 2322 Rocket 3.4 23:02:40 10° NW 23:07:35 31° WSW 23:09:15 26° SW
Cosmos 1570 Rocket 4.2 23:02:33 10° NNW 23:07:54 67° ENE 23:09:22 46° SE
COSMOS 2455 3.4 23:08:59 38° SE 23:09:42 39° ESE 23:15:15 10° NE
Cosmos 2297 Rocket 3.3 23:13:10 26° ESE 23:13:29 27° ESE 23:18:07 10° NE
Nadezhda 1 Rocket 3.9 23:13:18 10° N 23:19:39 83° W 23:21:42 46° S
Cosmos 1408 3.7 23:22:14 33° NNE 23:22:14 33° NNE 23:24:03 10° NNE
GP-B 3.8 23:17:01 10° N 23:21:13 45° W 23:22:05 39° WSW
USA 281 3.6 23:19:37 36° SSW 23:21:50 50° WSW 23:28:13 10° NNW
SL-4 R/B 3.9 23:22:15 10° NW 23:25:51 30° NNE 23:29:38 10° ENE
COSMOS 2428 2.8 23:20:46 10° NNW 23:26:29 72° ENE 23:28:13 45° SE
ATLAS CENTAUR R/B 3.9 23:28:22 10° W 23:30:38 16° NW 23:32:57 10° N
GEOS 3 Rocket 3.9 23:26:27 10° NE 23:31:23 44° ESE 23:31:28 44° SE
Cosmos 1782 Rocket 3.6 23:29:45 10° NNW 23:34:02 63° W 23:34:15 61° WSW
CZ-3 Stage 3 4.1 23:10:21 10° W 23:34:47 38° SSW 23:37:06 34° S
Cosmos 1242 Rocket 4.3 23:35:32 20° NW 23:35:32 20° NW 23:37:04 10° NNW
H-2A R/B 3.1 23:35:29 44° WSW 23:35:40 44° W 23:39:48 10° NNW
Cosmos 1953 3.9 23:32:50 10° NW 23:35:52 23° W 23:35:58 23° W
Cosmos 2219 Rocket 2.7 23:31:02 10° NW 23:36:25 45° WSW 23:37:28 41° SW
Spot 2 4.4 23:35:40 60° S 23:36:33 79° WSW 23:41:39 10° NNW
Cosmos 1455 3.9 23:34:58 10° NW 23:37:25 21° W 23:37:25 21° W
Cosmos 2208 Rocket 3.9 23:33:25 10° NNW 23:38:38 89° WSW 23:39:34 61° SSE
Cosmos 371 Rocket 3.3 23:39:00 59° SE 23:39:16 60° ESE 23:44:01 10° NNE
Cosmos 158 Rocket 3.9 23:35:48 10° NNW 23:41:08 89° E 23:42:07 60° SSE
Spot 4 4.2 23:42:36 46° WSW 23:43:10 48° W 23:47:49 10° NNW
Cosmos 836 Rocket 4.4 23:38:18 10° NNW 23:43:33 84° ENE 23:44:34 58° SSE
Cosmos 773 Rocket 4.3 23:43:23 10° NNW 23:48:28 56° ENE 23:49:51 42° ESE
ALOS 2 2.8 23:49:16 55° WSW 23:49:26 56° W 23:53:46 10° NNW
Cosmos 2151 Rocket 4.5 23:45:22 10° N 23:49:29 37° ENE 23:50:03 36° E
Cosmos 1503 Rocket 4.1 23:51:55 55° SE 23:52:41 61° ESE 23:57:56 10° NNE
